Location: ?eyhköy
(36.5167°N, 30.1833°E)
Time: 11:03:48
(UTC+00:00)

Daily predictions for brighter satellites

Satellite Brightness Start Highest point End
(mag) Time Altitude Azimuth Time Altitude Azimuth Time Altitude Azimuth
NOSS 2-1 (C) 4.4 15:42:20 10° NNW 15:47:01 52° ENE 15:53:38 10° SE
Radarsat Rocket 4.1 15:42:03 10° SSE 15:47:48 60° ENE 15:54:05 10° N
ATLAS CENTAUR R/B 3.3 15:45:39 10° WSW 15:49:55 33° NW 15:54:06 10° N
Cosmos 1633 4.4 15:49:44 10° ESE 15:50:45 11° E 15:51:46 10° ENE
Cosmos 1825 3.6 15:48:24 10° SE 15:50:52 17° E 15:53:21 10° NE
SKYMED 2 3.7 15:47:32 10° NNE 15:51:48 56° E 15:56:03 10° S
Cosmos 1980 Rocket 3.8 15:47:19 10° SW 15:52:25 35° WNW 15:57:35 10° N
NOSS 2-1 (D) 4.2 15:50:14 10° NNW 15:54:58 61° ENE 16:01:43 10° SE
YAOGAN 1 3.9 15:56:18 10° ESE 15:59:21 19° ENE 16:02:24 10° NNE
Cosmos 2237 4.4 15:55:17 10° S 16:00:47 51° ESE 16:06:19 10° NNE
Cosmos 1461 3.7 15:57:31 10° S 16:01:13 32° ESE 16:05:06 10° NE
ISS -1.9 16:00:18 10° NNW 16:02:33 17° NNE 16:04:32 11° ENE
ADEOS 4.0 15:57:39 10° S 16:02:50 71° WSW 16:08:03 10° NNW
Cosmos 1954 Rocket 4.1 16:03:03 10° S 16:08:11 56° ESE 16:13:19 10° NNE
Cosmos 1536 Rocket 3.9 16:05:12 10° SSW 16:09:29 68° W 16:13:48 10° N
Centaur D AC-25 4.4 16:01:52 10° W 16:09:31 33° SSW 16:13:11 10° SE
APEX 4.5 16:04:04 10° SSW 16:10:11 81° WNW 16:16:05 10° NNE
Cosmos 2263 Rocket 2.4 16:06:59 10° NNW 16:12:33 78° WSW 16:18:05 10° SSE
SKYMED 3 4.4 16:11:38 10° NNE 16:15:46 73° ESE 16:19:53 10° S
USA 215 3.3 16:10:38 10° SE 16:17:11 88° SW 16:23:47 10° NW
Meteor 1-11 4.2 16:18:59 10° S 16:24:45 70° E 16:30:32 10° NNE
ATLAS 2AS CENTAUR R/B 3.1 16:19:47 10° NNW 16:26:13 39° NE 16:32:17 10° ESE
PSLV R/B 4.0 16:23:24 10° SE 16:26:48 38° ENE 16:30:14 10° N
Cosmos 1763 Rocket 3.9 16:22:06 10° N 16:26:55 38° ENE 16:31:37 10° SE
Cosmos 1606 Rocket 3.7 16:23:54 10° N 16:28:04 46° E 16:32:12 10° SSE
CZ-4 R/B 2.4 16:26:44 10° SE 16:30:06 24° ENE 16:33:27 10° NNE
Genesis I 3.8 16:26:47 10° S 16:30:24 36° ESE 16:32:13 23° ENE
CZ-4B DEB 4.1 16:27:45 10° SSE 16:33:11 84° ENE 16:38:40 10° NNW
Cosmos 1892 Rocket 3.8 16:29:00 10° SSE 16:33:14 47° E 16:37:28 10° NNE
BREEZE M DEB (TANK) 2.9 16:29:48 10° NW 16:33:37 37° NNE 16:34:22 30° ENE
Cosmos 2228 3.3 16:33:14 10° NNW 16:37:26 67° W 16:41:36 10° S
CZ-4B R/B 3.3 16:33:23 10° SE 16:38:26 46° ENE 16:43:34 10° N
COSMO-SKYMED 1 4.0 16:35:43 10° N 16:39:45 38° WNW 16:43:45 10° SW
Cosmos 1844 Rocket 3.1 16:38:47 10° N 16:43:55 37° ENE 16:47:08 20° ESE
Atlas Centaur 2 3.9 16:37:46 10° SW 16:45:03 35° SSE 16:49:54 20° ESE
Cosmos 44 Rocket 4.0 16:42:59 10° S 16:47:01 30° ESE 16:47:28 29° E
Cosmos 540 Rocket 3.9 16:42:27 10° N 16:47:11 36° ENE 16:49:31 24° ESE
NOAA 15 4.5 16:43:40 10° SSE 16:48:50 66° ENE 16:54:04 10° N
MINOTAUR 4 R/B 3.9 16:45:59 10° N 16:49:25 85° WNW 16:52:49 10° SSW
Cosmos 2227 4.5 16:44:07 10° NNW 16:49:52 73° WSW 16:55:35 10° SSE
RESURS DK-1 4.3 16:46:50 10° N 16:47:55 15° NNE 16:47:55 15° NNE
Cosmos 676 Rocket 4.4 16:45:24 10° SSW 16:50:39 65° WNW 16:55:55 10° NNE
Delta 2 Rocket 2.8 16:47:35 10° WSW 16:50:52 64° S 16:51:31 49° ESE
Cosmos 1844 4.2 16:47:53 10° N 16:53:17 38° ENE 16:55:19 29° ESE
Lacrosse 5 2.8 16:50:30 10° WSW 16:55:21 44° NW 16:59:06 16° NNE
Feng Yun 1-1 Rocket 4.5 16:51:46 10° SE 16:57:05 45° ENE 17:02:17 10° N
Cosmos 2360 Rocket 2.1 16:51:54 10° SSW 16:57:32 90° WNW 17:02:57 11° NNE
Okean O Rocket 1.7 16:54:16 10° SSE 16:58:28 48° ENE 17:02:42 10° N
Cosmos 2333 Rocket 2.2 16:53:01 10° S 16:58:32 58° ESE 17:01:49 25° NE
Cosmos 2219 Rocket 2.6 16:53:55 10° S 16:59:01 38° ESE 16:59:55 36° E
IRIDIUM 106 4.2 16:55:35 10° N 17:00:47 66° E 17:05:57 10° S
Cosmos 1726 Rocket 3.4 16:56:45 10° N 17:01:05 87° E 17:05:23 10° S
Cosmos 2322 Rocket 3.1 17:02:58 10° SW 17:08:22 48° WNW 17:13:47 10° N
Cosmos 1553 Rocket 3.9 17:02:39 10° S 17:08:43 85° W 17:14:51 10° N
Cosmos 1417 Rocket 4.4 17:05:26 10° S 17:11:41 72° E 17:17:53 10° N
COSMOS 2428 4.1 17:09:06 10° SSE 17:11:29 22° SE 17:11:29 22° SE
BREEZE-M DEB (TANK) 3.4 17:16:01 10° WNW 17:18:50 27° SW 17:19:02 27° SW
OAO 1 Rocket 4.4 17:15:03 10° W 17:20:25 77° S 17:21:17 61° ESE
SL-08 R/B 4.4 17:14:55 10° N 17:21:12 88° W 17:27:31 10° S
Cosmos 2333 4.1 17:16:09 10° SSW 17:21:44 89° ESE 17:24:17 34° NNE
SL-16 R/B 4.2 17:17:05 10° WSW 17:21:46 26° WNW 17:26:28 10° N
Cosmos 1633 4.5 17:21:38 10° SW 17:24:31 27° WNW 17:26:54 13° NNW
BREEZE-M DEB (TANK) 3.7 17:12:29 10° WNW 17:26:48 81° SW 17:27:46 56° SE
Cosmos 2058 Rocket 3.4 17:28:40 10° N 17:32:20 59° NNW 17:32:20 59° NNW
YAOGAN 1 4.3 17:31:18 10° SSW 17:35:09 32° W 17:39:03 10° NNW
ISS -1.3 17:36:14 10° NW 17:37:28 21° WNW 17:37:28 21° WNW
BREEZE-M DEB (TANK) 4.2 17:35:47 10° NW 17:40:02 45° NNE 17:40:31 45° NE
Cosmos 2322 3.8 17:36:44 10° SSW 17:41:30 61° S 17:41:30 61° S
S3M 4.1 17:36:21 10° S 17:42:43 79° W 17:49:08 10° N
CZ-4 R/B 3.7 18:01:35 10° SSW 18:04:52 23° W 18:08:10 10° NW
ATLAS 2AS CENTAUR R/B 3.8 18:10:52 10° NW 18:17:01 38° WSW 18:19:51 26° SSW
Atlas Centaur 2 3.7 18:26:04 10° WSW 18:32:23 46° SSW 18:32:23 46° SSW
Cosmos 2219 Rocket 4.2 18:38:23 10° WSW 18:41:44 24° W 18:41:44 24° W
Cosmos 2333 Rocket 4.4 18:39:16 10° W 18:43:12 19° NW 18:43:54 19° NW
